Retour au catalogue

GHOST-2

LostSciencePO
NORAD 56197·PAYLOAD·🇺🇸 United States

Lancé Apr 15, 2023 depuis Vandenberg Space Force Base

Loading…

Prochains Passages (prochaines 24 heures)

TLE

PériméSource: Space-Track

Époque: Dec 15, 2025, 05:04 UTC

1 56197U 23054V   25349.21142485  .10341550  25867-5  16806-3 0  9998
2 56197  97.2907 265.6599 0007299 240.3024 119.7554 16.47991985150937

Suivez GHOST-2 en temps réel avec AllMySat

Download on the App Store